C/2017 K1 ( PanSTARRS )

Japanese version
Home page
Updated on May 21, 2018

---------------------------------------------------------------------

* Profile

Discovery Date May 21, 2017
Magnitude 20.3 mag
Discoverer Pan-STARRS 1 telescope (Haleakala)

* Pictures

* Orbital Elements

Epoch 2018 Mar. 23.0 TT = JDT 2458200.5
T 2018 Mar. 14.10600 TT                                 MPCW
q   7.2858354            (2000.0)            P               Q
z  -0.0003425      Peri.    4.15510     -0.74386937     -0.59033145
 +/-0.0000047      Node   225.64189     -0.62511387     +0.44874102
e   1.0024952      Incl.  154.00999     -0.23641280     +0.67092494
From 35 observations 2017 May 21-2018 Mar. 27, mean residual 0".4.

* Magnitudes Graph

        m1 = 6.5 + 5 log d + 10.0 log r

---------------------------------------------------------------------

The orbital elements are published on M.P.E.C. 2018-F152.
The magnitudes graphs are made with Comet for Windows.

---------------------------------------------------------------------

Copyright(C) Seiichi Yoshida (comet@aerith.net). All rights reserved.